Regional Weather Roundup
Issued by NWS

Home | Current Version | Previous Version | Graphics & Text | Print | Product List | Glossary On
Versions: 1 2 3 4 5 6 7 8 9 10 11 12 13 14 15 16 17 18 19 20 21 22 23 24 25 26 27 28 29 30 31 32 33 34 35 36 37 38 39 40 41 42 43 44 45 46 47 48 49 50
000
ASUS43 KLSX 251607
RWRMO

WEATHER SUMMARY FOR MISSOURI
NATIONAL WEATHER SERVICE SPRINGFIELD MO
1100 AM CDT SAT OCT 25 2014

NOTE: "FAIR" INDICATES FEW OR NO CLOUDS BELOW 12,000 FEET WITH NO
       SIGNIFICANT WEATHER AND/OR OBSTRUCTIONS TO VISIBILITY.
       CURRENT SKY AND/OR WEATHER CONDITIONS ARE NOT AVAILABLE FOR
       CHILLICOTHE AND FARMINGTON.

MOZ001>031-035>038-043-044-053-054-251700-
...NORTHERN AND WESTERN MISSOURI...

CITY           SKY/WX    TMP DP  RH WIND       PRES   REMARKS
KANSAS CTY INT MOSUNNY   65  61  87 NE6       30.10R
KANSAS C DTWN  SUNNY     64  62  93 CALM      30.09R
LEE`S SUMMIT   SUNNY     69  63  81 NE6       30.10R
ST JOSEPH      MOSUNNY   63  60  90 N3        30.09F
CHILLICOTHE      N/A     67  55  65 CALM      30.10F
KIRKSVILLE     SUNNY     68  53  58 N7        30.09R

$$
MOZ066>068-077>081-088>096-101>105-251700-
...SOUTHWEST MISSOURI...

CITY           SKY/WX    TMP DP  RH WIND       PRES   REMARKS
SPRINGFIELD    SUNNY     73  62  68 W7        30.09S
JOPLIN         SUNNY     72  63  73 SW7       30.10F

$$
MOZ032>034-039>042-045>050-055>058-069>072-251700-
...CENTRAL MISSOURI...

CITY           SKY/WX    TMP DP  RH WIND       PRES   REMARKS
COLUMBIA       SUNNY     69  63  81 VRB3      30.08R
JEFFERSON CITY SUNNY     69  61  75 N6        30.07R
ROLLA          SUNNY     68  61  78 SW6       30.07S
SEDALIA        CLOUDY    66  62  87 CALM      30.09S FOG
WHITEMAN AFB   MOSUNNY   67  63  87 NE3       30.08R
OSAGE BEACH    SUNNY     70  61  73 SW6       30.08F

$$
MOZ051-052-059>065-251700-
...EAST CENTRAL MISSOURI...

CITY           SKY/WX    TMP DP  RH WIND       PRES   REMARKS
ST LOUIS INTL  SUNNY     72  62  71 W3        30.05S
SPIRIT OF STL  SUNNY     71  61  70 W3        30.04S
ST CHARLES     SUNNY     70  62  76 CALM      30.04R HAZE

$$
MOZ072>076-082>087-097>100-106>115-251700-
...SOUTH CENTRAL AND SOUTHEAST MISSOURI...

CITY           SKY/WX    TMP DP  RH WIND       PRES   REMARKS
CAPE GIRARDEAU SUNNY     69  60  73 W5        30.05F
FARMINGTON     SUNNY     70  63  78 N7        30.09R
POPLAR BLUFF   SUNNY     70  59  68 W7        30.05F
WEST PLAINS    SUNNY     70  59  68 W8        30.10F

$$



USA.gov is the U.S. government's official web portal to all federal, state and local government web resources and services.